This demonstration page uses our WeatherBlox Daily Observations layout. Learn more.

Left ArrowRight Arrow

47.50024, -111.30081

Hourly Observations for April 19, 2020

Temp ( °F °C ) Dew Point ( °F °C ) Humidity (%) Winds ( mph kmh ) Pressure ( in mb ) Visibility ( mi km ) Precip ( " mm )
12:53 am 00:53 Mostly Cloudy 34 1.1 31 -0.6 89 89 E 7 11 30.01 1016 10 16 0.00 0.00
1:53 am 01:53 Mostly Cloudy 35 1.7 30 -1.1 82 82 E 8 13 29.99 1016 10 16 0.00 0.00
2:53 am 02:53 Cloudy 34 1.1 30 -1.1 85 85 ESE 3 6 29.98 1015 10 16 0.00 0.00
3:53 am 03:53 Cloudy 32 0 29 -1.7 88 88 SW 7 11 29.97 1015 10 16 0.00 0.00
4:53 am 04:53 Mostly Cloudy 28 -2.2 26 -3.3 92 92 SW 7 11 29.98 1015 9 14 0.00 0.00
5:53 am 05:53 Mostly Clear 27 -2.8 25 -3.9 92 92 SSW 6 9 29.98 1015 10 16 0.00 0.00
6:53 am 06:53 Sunny 26 -3.3 24 -4.4 92 92 SW 7 11 29.99 1016 8 13 0.00 0.00
7:53 am 07:53 Sunny 33 0.6 31 -0.6 92 92 SW 7 11 29.99 1016 10 16 0.00 0.00
8:53 am 08:53 Sunny 38 3.3 34 1.1 86 86 SW 9 15 29.99 1016 10 16 0.00 0.00
9:53 am 09:53 Sunny 43 6.1 36 2.2 76 76 WSW 12 19 29.98 1015 10 16 0.00 0.00
10:53 am 10:53 Sunny 47 8.3 35 1.7 63 63 W 13 20 29.98 1015 10 16 0.00 0.00
11:53 am 11:53 Mostly Sunny 52 11.1 28 -2.2 40 40 W 9 15 29.96 1015 10 16 0.00 0.00
12:53 pm 12:53 Mostly Cloudy 54 12.2 30 -1.1 40 40 W 10 17 29.96 1014 10 16 0.00 0.00
1:53 pm 13:53 Mostly Cloudy 54 12.2 26 -3.3 34 34 WNW 9 15 29.93 1014 10 16 0.00 0.00
2:53 pm 14:53 Mostly Cloudy 59 15 27 -2.8 29 29 W 16 26 29.90 1013 10 16 0.00 0.00
3:53 pm 15:53 Cloudy 59 15 26 -3.3 28 28 WNW 15 24 29.90 1013 10 16 0.00 0.00
4:53 pm 16:53 Partly Cloudy 60 15.6 26 -3.3 27 27 W 18 30 29.89 1012 10 16 0.00 0.00
5:53 pm 17:53 Mostly Cloudy 59 15 26 -3.3 28 28 W 20 31 29.91 1013 10 16 0.00 0.00
6:53 pm 18:53 Mostly Sunny 56 13.3 25 -3.9 30 30 W 16 26 29.92 1013 10 16 0.00 0.00
7:53 pm 19:53 Partly Cloudy 52 11.1 26 -3.3 37 37 WNW 12 19 29.91 1013 10 16 0.00 0.00
8:53 pm 20:53 Mostly Clear 42 5.6 26 -3.3 53 53 W 7 11 29.95 1014 10 16 0.00 0.00
9:53 pm 21:53 Clear 40 4.4 26 -3.3 58 58 W 6 9 29.96 1014 10 16 0.00 0.00
10:53 pm 22:53 Clear 35 1.7 26 -3.3 70 70 WSW 9 15 29.97 1015 10 16 0.00 0.00
11:53 pm 23:53 Clear 34 1.1 26 -3.3 73 73 WSW 9 15 29.97 1015 10 16 0.00 0.00

Powered by AerisWeather